Location: Newark
(37.4167°N, 6.2889°W)
Time: 05:00:18
(UTC+00:00)

Tiangong 2 - Visible Passes

Search period start: 23 March 2019 00:00
Search period end: 02 April 2019 00:00
Orbit: 380 x 390 km, 42.8° (Epoch: 22 March)

Date Brightness Start Highest point End Pass type
(mag) Time Alt. Az. Time Alt. Az. Time Alt. Az.
23 Mar 1.5 05:18:48 29° W 05:19:56 43° SSW 05:22:59 10° SE visible
24 Mar 3.4 04:22:34 20° ESE 04:22:34 20° ESE 04:23:41 10° ESE visible
24 Mar 3.3 05:55:23 10° WSW 05:56:52 13° SW 05:58:20 10° SSW visible
25 Mar 3.0 04:58:45 19° S 04:58:45 19° S 05:00:09 10° SSE visible
28 Mar 3.3 20:06:26 10° SSW 20:07:16 15° S 20:07:16 15° S visible
29 Mar 3.5 20:42:44 10° WSW 20:43:42 18° WSW 20:43:42 18° WSW visible
30 Mar 1.6 19:43:26 10° SW 19:46:22 38° SSE 19:47:41 25° E visible
31 Mar 1.2 20:20:23 10° WSW 20:23:30 66° NNW 20:23:42 63° N visible
01 Apr 1.0 19:20:49 10° WSW 19:23:56 73° SSE 19:27:04 10° ENE visible
01 Apr 3.5 20:57:57 10° WNW 20:59:34 23° NW 20:59:34 23° NW visible
